Tracking 19212 objects as of 16-Jul-2018
HD Live streaming from Space Station
objects crossing your sky now

FLOCK 2K 21

Track FLOCK 2K 21 now!
10-day predictions
FLOCK 2K 21 is classified as:


NORAD ID: 42860
Int'l Code: 2017-042AM
Perigee: 454.8 km
Apogee: 469.8 km
Inclination: 97.0 °
Period: 93.7 minutes
Semi major axis: 6833 km
RCS: Unknown
Launch date: July 14, 2017
Source: United States (US)
Launch site: TYURATAM MISSILE AND SPACE COMPLEX (TTMTR)
aabbcc
Your satellite tracking list
Your tracking list is empty




NASA's NSSDC Master Catalog

Two Line Element Set (TLE):
1 42860U 17042AM  18196.29429377 +.00003183 +00000-0 +90015-4 0  9996
2 42860 096.9772 091.4544 0010981 021.9970 338.1744 15.36950231055955
Source of the keplerian elements: AFSPC